Hourly Data Report for October 01, 2017

All times are specified in Local Standard Time (LST). Add 1 hour to adjust for Daylight Saving Time where and when it is observed.

THE PAS A
MANITOBA

53°58'17.000" N
101°05'28.000" W
270.60 m
5052881
71867
YQD

Download Data

Hourly Data (October 2017)
Hourly Data Report for October 1, 2017
Temp Definition
°C
Dew Point Temp Definition
°C
Rel Hum Definition
%
Wind Dir Definition
10's deg

Wind Spd Definition
km/h
Visibility Definition
km
Stn Press Definition
kPa
Hmdx Definition


Wind Chill Definition


Weather Definition


TIME
00:00 Legend Double Dagger 14.2 10.2 77 13 13 24.1 97.16     Cloudy
01:00 Legend Double Dagger 14.4 10.3 76 11 13 24.1 97.12     LegendNANA
02:00 Legend Double Dagger 14.4 10.4 77 11 16 24.1 97.07     LegendNANA
03:00 Legend Double Dagger 13.7 10.3 80 12 15 24.1 97.03     Mostly Cloudy
04:00 Legend Double Dagger 13.6 10.3 80 12 16 24.1 97.00     LegendNANA
05:00 Legend Double Dagger 13.5 10.8 83 12 18 24.1 96.99     LegendNANA
06:00 Legend Double Dagger 13.2 10.8 85 11 20 24.1 96.95     Cloudy
07:00 Legend Double Dagger 13.0 10.9 87 12 13 24.1 96.96     Rain Showers
08:00 Legend Double Dagger 13.3 11.1 87 10 17 24.1 96.91     LegendNANA
09:00 Legend Double Dagger 13.6 11.5 87 13 10 24.1 96.96     Cloudy
10:00 Legend Double Dagger 13.9 11.7 86 12 15 24.1 96.97     LegendNANA
11:00 Legend Double Dagger 14.0 11.7 86 13 18 24.1 96.96     LegendNANA
12:00 Legend Double Dagger 14.5 11.8 84 13 16 24.1 96.93     Cloudy
13:00 Legend Double Dagger 14.4 11.8 84 15 25 24.1 96.95     LegendNANA
14:00 Legend Double Dagger 15.3 12.2 81 15 23 24.1 96.95     LegendNANA
15:00 Legend Double Dagger 16.7 12.3 75 14 18 24.1 96.90     Mostly Cloudy
16:00 Legend Double Dagger 16.1 12.3 78 15 18 24.1 96.91     LegendNANA
17:00 Legend Double Dagger 15.4 12.1 81 14 16 24.1 96.93     LegendNANA
18:00 Legend Double Dagger 15.3 12.2 82 13 9 24.1 96.97     Cloudy
19:00 Legend Double Dagger 14.4 12.0 85 12 6 24.1 97.03     LegendNANA
20:00 Legend Double Dagger 14.5 11.9 84 10 8 24.1 97.05     LegendNANA
21:00 Legend Double Dagger 13.9 11.8 87 8 7 24.1 97.05     Cloudy
22:00 Legend Double Dagger 13.8 11.8 88 9 7 24.1 97.04     LegendNANA
23:00 Legend Double Dagger 13.6 11.6 88 10 5 24.1 97.03     LegendNANA

Notes on Data Quality.

Legend

  • E = Estimated
  • M = Missing
  • NA = Not Available
  • ‡ = Partner data that is not subject to review by the National Climate Archives
Date modified: